Jefferson, NC

5:05 PM EST on December 09, 2019 (GMT -0500)
Ashe County

Weather History for KGEV - October, 2019

Change the Weather History Date:

Thursday, October 3, 2019

  Actual Average Record
Temperature  
Mean Temperature 72 °F -  
Max Temperature 84 °F 67 °F 80 °F (2002)
Min Temperature 61 °F 42 °F 26 °F (2003)
Cooling Degree Days 8    
Growing Degree Days 22 (Base 50)    
Moisture  
Dew Point 58 °F    
Average Humidity 62    
Maximum Humidity 97    
Minimum Humidity 32    
Precipitation  
Precipitation 0.00 in - - ()
Sea Level Pressure  
Sea Level Pressure 30.17 in    
Wind  
Wind Speed 3 mph ()    
Max Wind Speed 13 mph    
Max Gust Speed 16 mph    
Visibility 10.0 miles    
Events      
Averages and records for this station are not official NWS values.
T = Trace of Precipitation, MM = Missing Value Source: Averaged Metar Reports

Daily Weather History Graph

Daily Weather History Graph

Search for Another Location

Airport or City:

Astronomy

Oct. 03, 2019 Rise Set
Actual Time 7:22 AM EDT 7:06 PM EDT
Civil Twilight 6:56 AM EDT 7:32 PM EDT
Nautical Twilight 6:26 AM EDT 8:02 PM EDT
Astronomical Twilight 5:56 AM EDT 8:32 PM EDT
Moon 12:44 PM EDT (10/3) 10:53 PM EDT (10/3)
Length of Visible Light 12h 35m
Length of Day
11h 44m
Waxing Crescent, 29% of the Moon is Illuminated
Oct 3
Waxing Crescent
Oct 5
First Quarter
Oct 13
Full
Oct 21
Last Quarter
Oct 27
New

Hourly Weather History & Observations

Time (EDT) Temp. Heat Index Dew Point Humidity Pressure Visibility Wind Dir Wind Speed Gust Speed Precip Events Conditions
12:15 AM 64.8 °F - 62.6 °F 93% 30.15 in 10.0 mi Calm Calm - N/A   Clear
12:35 AM 63.3 °F - 62.1 °F 96% 30.15 in 10.0 mi Calm Calm - N/A   Clear
12:55 AM 62.8 °F - 61.7 °F 96% 30.15 in 10.0 mi Calm Calm - N/A   Clear
1:15 AM 63.3 °F - 61.3 °F 93% 30.14 in 10.0 mi South 4.6 mph - N/A   Clear
1:35 AM 63.7 °F - 61.7 °F 93% 30.15 in 10.0 mi Calm Calm - N/A   Clear
1:55 AM 64.0 °F - 61.5 °F 91% 30.15 in 10.0 mi Calm Calm - N/A   Clear
2:15 AM 63.7 °F - 61.5 °F 93% 30.15 in 10.0 mi Calm Calm - N/A   Clear
2:35 AM 64.4 °F - 61.5 °F 90% 30.15 in 10.0 mi Calm Calm - N/A   Clear
2:55 AM 64.8 °F - 61.5 °F 89% 30.15 in 10.0 mi Calm Calm - N/A   Clear
3:15 AM 64.6 °F - 60.8 °F 88% 30.14 in 10.0 mi WNW 3.5 mph - N/A   Clear
3:35 AM 66.2 °F - 61.0 °F 83% 30.14 in 10.0 mi Calm Calm - N/A   Clear
3:55 AM 63.0 °F - 59.7 °F 89% 30.14 in 10.0 mi Calm Calm - N/A   Clear
4:15 AM 61.3 °F - 60.6 °F 97% 30.15 in 10.0 mi Calm Calm - N/A   Clear
4:35 AM 63.0 °F - 60.1 °F 90% 30.15 in 10.0 mi Calm Calm - N/A   Clear
4:55 AM 62.2 °F - 60.1 °F 93% 30.15 in 10.0 mi Calm Calm - N/A   Clear
5:15 AM 62.1 °F - 59.4 °F 91% 30.16 in 10.0 mi Calm Calm - N/A   Clear
5:35 AM 63.1 °F - 59.2 °F 87% 30.16 in 10.0 mi Calm Calm - N/A   Clear
5:55 AM 63.5 °F - 59.0 °F 85% 30.17 in 10.0 mi Calm Calm - N/A   Clear
6:15 AM 65.8 °F - 58.5 °F 77% 30.18 in 10.0 mi Calm Calm - N/A   Clear
6:35 AM 68.2 °F - 58.3 °F 71% 30.18 in 10.0 mi NW 4.6 mph - N/A   Clear
6:55 AM 64.9 °F - 58.3 °F 79% 30.19 in 10.0 mi Calm Calm - N/A   Clear
7:15 AM 64.8 °F - 58.6 °F 81% 30.19 in 10.0 mi Calm Calm - N/A   Clear
7:35 AM 65.7 °F - 58.5 °F 78% 30.19 in 10.0 mi Calm Calm - N/A   Clear
7:55 AM 66.4 °F - 59.0 °F 77% 30.20 in 10.0 mi NNW 3.5 mph - N/A   Clear
8:15 AM 67.8 °F - 59.0 °F 73% 30.20 in 10.0 mi Calm Calm - N/A   Clear
8:35 AM 70.0 °F - 59.4 °F 69% 30.20 in 10.0 mi Calm Calm - N/A   Clear
8:55 AM 72.1 °F - 61.0 °F 68% 30.20 in 10.0 mi Calm Calm - N/A   Clear
9:15 AM 71.4 °F - 63.0 °F 75% 30.20 in 10.0 mi Calm Calm - N/A   Clear
9:35 AM 73.0 °F - 62.1 °F 68% 30.20 in 10.0 mi Calm Calm - N/A   Clear
9:55 AM 74.3 °F - 63.7 °F 69% 30.20 in 10.0 mi Calm Calm - N/A   Clear
10:15 AM 75.0 °F - 61.9 °F 64% 30.20 in 10.0 mi Calm Calm - N/A   Clear
10:35 AM 76.6 °F - 60.6 °F 58% 30.21 in 10.0 mi North 4.6 mph - N/A   Clear
10:55 AM 77.0 °F - 59.7 °F 55% 30.21 in 10.0 mi Calm Calm - N/A   Clear
11:15 AM 78.1 °F - 60.6 °F 55% 30.21 in 10.0 mi North 5.8 mph - N/A   Clear
11:35 AM 78.4 °F - 60.4 °F 54% 30.20 in 10.0 mi NNW 4.6 mph - N/A   Clear
11:55 AM 79.0 °F - 61.2 °F 54% 30.20 in 10.0 mi NNW 6.9 mph - N/A   Clear
12:15 PM 79.5 °F - 59.5 °F 50% 30.20 in 10.0 mi NW 5.8 mph - N/A   Clear
12:35 PM 80.8 °F 81.1 °F 57.9 °F 46% 30.19 in 10.0 mi West 6.9 mph - N/A   Clear
12:55 PM 81.3 °F 81.3 °F 57.4 °F 44% 30.19 in 10.0 mi WSW 9.2 mph - N/A   Clear
1:15 PM 81.7 °F 81.5 °F 57.0 °F 43% 30.18 in 10.0 mi WSW 6.9 mph - N/A   Clear
1:35 PM 81.1 °F 81.4 °F 58.6 °F 46% 30.18 in 10.0 mi Calm Calm - N/A   Clear
1:55 PM 82.4 °F 82.5 °F 59.2 °F 45% 30.17 in 10.0 mi West 9.2 mph - N/A   Clear
2:15 PM 83.1 °F 82.9 °F 58.3 °F 43% 30.16 in 10.0 mi West 4.6 mph - N/A   Clear
2:35 PM 83.3 °F 82.5 °F 56.1 °F 39% 30.16 in 10.0 mi West 12.7 mph - N/A   Clear
2:55 PM 83.3 °F 82.5 °F 55.6 °F 39% 30.16 in 10.0 mi West 8.1 mph - N/A   Clear
3:15 PM 83.5 °F 82.4 °F 54.7 °F 37% 30.15 in 10.0 mi West 9.2 mph - N/A   Clear
3:35 PM 84.0 °F - 52.7 °F 34% 30.14 in 10.0 mi West 9.2 mph 16.1 mph N/A   Clear
3:55 PM 84.6 °F - 51.4 °F 32% 30.14 in 10.0 mi West 6.9 mph 16.1 mph N/A   Clear
4:15 PM 84.0 °F 82.6 °F 53.2 °F 35% 30.14 in 10.0 mi West 8.1 mph - N/A   Clear
4:35 PM 84.7 °F 83.1 °F 53.1 °F 34% 30.14 in 10.0 mi West 9.2 mph - N/A   Clear
4:55 PM 84.4 °F 82.8 °F 53.1 °F 34% 30.14 in 10.0 mi West 8.1 mph - N/A   Clear
5:15 PM 84.0 °F 82.5 °F 53.1 °F 34% 30.14 in 10.0 mi West 8.1 mph - N/A   Clear
5:35 PM 83.5 °F - 52.9 °F 35% 30.14 in 10.0 mi West 9.2 mph - N/A   Clear
5:55 PM 82.4 °F 81.4 °F 53.8 °F 37% 30.14 in 10.0 mi West 8.1 mph - N/A   Clear
6:15 PM 81.7 °F 81.1 °F 54.1 °F 39% 30.15 in 10.0 mi West 6.9 mph - N/A   Clear
6:35 PM 81.0 °F 80.8 °F 55.6 °F 42% 30.15 in 10.0 mi West 9.2 mph - N/A   Clear
6:55 PM 80.1 °F 80.2 °F 55.4 °F 43% 30.15 in 10.0 mi West 9.2 mph - N/A   Clear
7:15 PM 79.2 °F - 55.6 °F 44% 30.15 in 10.0 mi West 9.2 mph - N/A   Clear
7:35 PM 77.9 °F - 56.3 °F 47% 30.15 in 10.0 mi West 6.9 mph - N/A   Clear
7:55 PM 77.7 °F - 56.3 °F 48% 30.16 in 10.0 mi West 6.9 mph - N/A   Clear
8:15 PM 76.6 °F - 56.3 °F 49% 30.16 in 10.0 mi WSW 5.8 mph - N/A   Clear
8:35 PM 76.1 °F - 56.5 °F 50% 30.17 in 10.0 mi WSW 3.5 mph - N/A   Clear
8:55 PM 75.2 °F - 56.7 °F 52% 30.17 in 10.0 mi West 3.5 mph - N/A   Clear
9:15 PM 74.7 °F - 57.2 °F 54% 30.17 in 10.0 mi WSW 3.5 mph - N/A   Clear
9:35 PM 74.7 °F - 57.2 °F 54% 30.17 in 10.0 mi Calm Calm - N/A   Clear
9:55 PM 74.3 °F - 57.2 °F 55% 30.18 in 10.0 mi WSW 4.6 mph - N/A   Clear
10:15 PM 75.2 °F - 57.4 °F 54% 30.17 in 10.0 mi West 8.1 mph - N/A   Clear
10:35 PM 75.0 °F - 57.4 °F 54% 30.18 in 10.0 mi West 8.1 mph - N/A   Clear
10:55 PM 75.2 °F - 57.4 °F 54% 30.18 in 10.0 mi WNW 10.4 mph - N/A   Clear
11:15 PM 75.6 °F - 57.2 °F 53% 30.18 in 10.0 mi West 8.1 mph - N/A   Clear
11:35 PM 75.2 °F - 56.7 °F 52% 30.18 in 10.0 mi West 9.2 mph - N/A   Clear
11:55 PM 75.2 °F - 56.8 °F 53% 30.18 in 10.0 mi West 11.5 mph - N/A   Clear